Flag for U.S.A. Weather past 2 weeks in Cheyenne, Wyoming, U.S.A.

Now
54 °F

Clear.


Feels Like: 52 °F
Forecast: 57 / 89 °F
Wind: 7 mph from West

Location: Cheyenne Airport

Current Time: Aug 30, 2015 at 4:15:19 AM

Latest Report: Aug 30, 2015 at 3:53 AM


Visibility: 9 mi

Pressure: 29.87 "Hg (23.92 "Hg at 1855m altitude)

Humidity: 72%

Dew point: 45 °F

Location of CheyenneLocation

Historic Weather in Cheyenne — Graph

°F

Cheyenne temperature yesterday

Maximum temperature yesterday: 84 °F (at 2:53 PM)
Minimum temperature yesterday: 52 °F (at 6:53 AM)
Average temperature yesterday: 70 °F

Past Weeks' High & Low Weather Summary

 TemperatureHumidityPressure
High93 °F (Aug 25, 3:53 PM)100% (Aug 17, 7:53 AM)30.22 "Hg (Aug 17, 7:53 AM)
Low39 °F (Aug 23, 5:53 AM)9% (Aug 24, 2:53 PM)29.60 "Hg (Aug 21, 5:53 PM)
Average66 °F48%29.94 "Hg
* Reported Aug 15 2:53 AM — Aug 30 2:53 AM, Cheyenne, Weather by CustomWeather, © 2015

Note: Actual official high and low records may vary slightly from our data, if they occured in-between our weather recording intervals... More about our weather records

Advertising

Cheyenne weather history for previous 24 hours

 ConditionsComfort  
Time TempWeatherWind HumidityBarometerVisibility
2:53 AM
Sun, Aug 30
57 °FClear.7 mph62%29.87 "Hg8 mi
1:53 AM60 °FClear.3 mph52%29.87 "Hg9 mi
12:53 AM62 °FClear.7 mph48%29.88 "Hg9 mi
11:53 PM
Sat, Aug 29
66 °FClear.12 mph42%29.88 "Hg9 mi
10:53 PM69 °FClear.13 mph38%29.89 "Hg9 mi
9:53 PM71 °FClear.12 mph35%29.91 "Hg9 mi
8:53 PM72 °FClear.10 mph28%29.93 "Hg8 mi
7:53 PM75 °FSunny.7 mph26%29.93 "Hg9 mi
6:53 PM79 °FSunny.9 mph24%29.94 "Hg9 mi
5:53 PM83 °FSunny.9 mph20%29.93 "Hg9 mi
4:53 PM84 °FSunny.12 mph18%29.93 "Hg9 mi
3:53 PM84 °FSunny.6 mph17%29.94 "Hg9 mi
2:53 PM84 °FSunny.7 mph17%29.97 "Hg9 mi
1:53 PM83 °FSunny.13 mph21%29.99 "Hg9 mi
12:53 PM83 °FSunny.13 mph21%30.01 "Hg9 mi
11:53 AM81 °FSunny.16 mph25%30.03 "Hg9 mi
10:53 AM80 °FSunny.13 mph26%30.06 "Hg9 mi
9:53 AM74 °FSunny.7 mph36%30.06 "Hg8 mi
8:53 AM67 °FSunny.3 mph45%30.06 "Hg8 mi
7:53 AM58 °FSunny.7 mph60%30.08 "Hg8 mi
6:53 AM52 °FClear.6 mph75%30.07 "Hg7 mi
5:53 AM53 °FClear.6 mph72%30.05 "Hg8 mi
4:53 AM54 °FClear.6 mph69%30.05 "Hg8 mi
Weather by CustomWeather, © 2015

See weather overviewHow to use our weather pages